Regional Weather Roundup
Issued by NWS

Home | Current Version | Previous Version | Graphics & Text | Print | Product List | Glossary On
Versions: 1 2 3 4 5 6 7 8 9 10 11 12 13 14 15 16 17 18 19 20 21 22 23 24 25 26 27 28 29 30 31 32 33 34 35 36 37 38 39 40 41 42 43 44 45 46 47 48 49 50
985
ASUS44 KMEG 081100
RWRTN
TENNESSEE HOURLY STATE WEATHER ROUNDUP
NATIONAL WEATHER SERVICE MEMPHIS TN
500 AM CST THU DEC 08 2016

TNZ002-004-019-021-049-052-054-088>092-081200-
WEST TENNESSEE

CITY           SKY/WX    TMP DP  RH WIND       PRES   REMARKS
MEMPHIS INTL   CLOUDY    38  24  57 N8        30.40R WCI  32
NWS MEMPHIS      N/A     37 N/A N/A MISG        N/A
JACKSON        PTCLDY    35  25  66 N5        30.37R WCI  31
DYERSBURG      CLOUDY    34  25  69 N7        30.39R WCI  28
UNION CITY     CLEAR     30  25  80 NW13      30.37R WCI  20
PARIS          PTCLDY    30  19  64 VRB3      30.35R
LEXINGTON      CLEAR     34  19  55 N6        30.33S WCI  29
$$

TNZ008-025-027-028-033-062-065-066-081200-
NORTH MIDDLE TENNESSEE

CITY           SKY/WX    TMP DP  RH WIND       PRES   REMARKS
NASHVILLE      PTCLDY    34  20  56 N8        30.33R WCI  27
CLARKSVILLE    MOCLDY    30  21  69 NW6       30.34R WCI  24
SMYRNA         CLOUDY    35  21  56 N10       30.34R WCI  27
CROSSVILLE     CLOUDY    31  19  61 N7        30.21R WCI  24
$$

TNZ061-075-076-078-094-096-097-081200-
SOUTH MIDDLE TENNESSEE

CITY           SKY/WX    TMP DP  RH WIND       PRES   REMARKS
TULLAHOMA      CLEAR     34  19  55 N13       30.27R WCI  25
WINCHESTER     CLEAR     36  23  60 N7        30.27R WCI  30
SHELBYVILLE    CLOUDY    36  25  64 N8        30.30R WCI  29
$$

TNZ017-018-042-046-047-081200-
NORTHEAST TENNESSEE

CITY           SKY/WX    TMP DP  RH WIND       PRES   REMARKS
TRI CITIES     CLOUDY    40  29  64 NW6       30.14R
$$

TNZ012-013-036-069-073-074-081200-
CENTRAL EAST TENNESSEE

CITY           SKY/WX    TMP DP  RH WIND       PRES   REMARKS
KNOXVILLE      CLOUDY    40  25  55 N6        30.20R
OAK RIDGE      CLOUDY    40  15  36 NW6       30.22R
GATLINBURG     CLOUDY    39  27  60 W5        30.20R
$$

TNZ083-085-099-081200-
SOUTHEAST TENNESSEE

CITY           SKY/WX    TMP DP  RH WIND       PRES   REMARKS
CHATTANOOGA    CLOUDY    42  23  46 N15       30.22R
$$

SKY/WX REPORTED AS FAIR MEANS FEW OR NO CLOUDS BELOW
12 THOUSAND FEET.





USA.gov is the U.S. government's official web portal to all federal, state and local government web resources and services.